Regional Weather Roundup
Issued by NWS

Home | Current Version | Previous Version | Graphics & Text | Print | Product List | Glossary On
Versions: 1 2 3 4 5 6 7 8 9 10 11 12 13 14 15 16 17 18 19 20 21 22 23 24 25 26 27 28 29 30 31 32 33 34 35 36 37 38 39 40 41 42 43 44 45 46 47 48 49 50
000
ASUS43 KOAX 022310
RWRNE

WEATHER ROUNDUP FOR NEBRASKA
NATIONAL WEATHER SERVICE OMAHA NE
500 PM CST MON MAR 02 2015

NOTES: SATELLITE DATA IS BEING USED TO AUGMENT CLOUD COVER ABOVE
       12000 FEET.
       "FAIR" INDICATES FEW OR NO CLOUDS BELOW 12,000 FEET WITH NO
       SIGNIFICANT WEATHER AND/OR OBSTRUCTIONS TO VISIBILITY.

  * THESE STATIONS DO NOT REPORT WEATHER SUCH AS RAIN...SNOW OR FOG.

NEZ001>004-019>022-054>056-030000-
NEBRASKA PANHANDLE

CITY           SKY/WX    TMP DP  RH WIND       PRES   REMARKS
SCOTTSBLUFF    MOSUNNY   46  25  43 SE13      29.68F
ALLIANCE       MOSUNNY   37  23  56 S21G26    29.72F WCI  26
CHADRON        CLOUDY    44  24  45 VRB3      29.71F
KIMBALL        PTSUNNY   39  27  60 SE16      29.66F WCI  31
SIDNEY         PTSUNNY   34  24  67 S15       29.73F WCI  24
$$

NEZ057>060-069>072-079>082-030000-
SOUTHWEST NEBRASKA

CITY           SKY/WX    TMP DP  RH WIND       PRES   REMARKS
NORTH PLATTE   CLOUDY    36  20  52 S17G26    29.88F WCI  26
IMPERIAL         N/A     32  22  66 S18G28    29.84F WCI  20
LEXINGTON      CLOUDY    37  19  49 S20       29.94F WCI  26
MCCOOK         CLOUDY    34  23  64 S22G31    29.93F WCI  22
OGALLALA       CLOUDY    32  23  69 S15G22    29.83F WCI  22
$$

NEZ005>010-023>029-035>040-094-030000-
NORTH CENTRAL NEBRASKA

CITY           SKY/WX    TMP DP  RH WIND       PRES   REMARKS
VALENTINE      CLOUDY    40  18  41 S25G33    29.82F WCI  29
AINSWORTH      MOSUNNY   39  17  39 S25G32    29.86F WCI  28
BROKEN BOW     CLOUDY    37  18  46 S26G37    29.92F WCI  25
O`NEILL        CLOUDY    39  17  40 S23       29.96F WCI  29
ORD            CLOUDY    38  13  35 S17G32    29.95F WCI  28
THEDFORD       CLOUDY    37  22  55 S21       29.86F WCI  26
$$

NEZ041-046>049-061>064-073>077-083>087-030000-
SOUTH CENTRAL NEBRASKA

CITY           SKY/WX    TMP DP  RH WIND       PRES   REMARKS
GRAND ISLAND   PTSUNNY   37  15  40 S22G32    30.02F WCI  26
AURORA         MOSUNNY   38  19  44 S18G24    30.03F WCI  29
HASTINGS       PTSUNNY   36  13  38 S21G26    30.02F WCI  25
HEBRON         CLOUDY    37  16  41 S17       30.10F WCI  28
HOLDREGE       CLOUDY    34  17  48 S23       29.97F WCI  22
KEARNEY *      PTSUNNY   36  16  44 S20G30    30.00F WCI  25
YORK           MOSUNNY   37  18  44 S22G29    30.05F WCI  27
$$

NEZ011>018-030>034-042>045-030000-
NORTHEAST NEBRASKA

CITY           SKY/WX    TMP DP  RH WIND       PRES   REMARKS
NORFOLK        CLOUDY    40  17  39 S23G30    30.04F WCI  30
ALBION         PTSUNNY   39  14  35 S23G29    30.01F WCI  29
BLAIR          CLOUDY    39  19  45 SE15      30.12F WCI  30
COLUMBUS *     CLOUDY    39  16  38 S18       30.08F WCI  30
FREMONT        PTSUNNY   40  18  40 SE16G26   30.11F WCI  32
TEKAMAH        CLOUDY    40  21  46 SE22      30.12F WCI  30
WAYNE          CLOUDY    39  20  46 S20       30.07F WCI  30
$$

NEZ050>053-065>068-078-088>093-030000-
SOUTHEAST NEBRASKA

CITY           SKY/WX    TMP DP  RH WIND       PRES   REMARKS
LINCOLN        SUNNY     40  18  41 S22       30.12F WCI  30
OMAHA EPPLEY   CLOUDY    39  19  44 SE17      30.14F WCI  30
BEATRICE       PTSUNNY   38  19  44 S16       30.12F WCI  29
FALLS CITY     CLOUDY    39  18  42 SE20      30.16F WCI  29
NEBRASKA CITY  MOSUNNY   38  15  39 SE16      30.15F WCI  29
PLATTSMOUTH    SUNNY     38  17  42 S15       30.14F WCI  30
$$

NEZ044-045-051>053-067-030000-
OMAHA AREA

CITY           SKY/WX    TMP DP  RH WIND       PRES   REMARKS
OMAHA EPPLEY   CLOUDY    39  19  44 SE17      30.14F WCI  30
BLAIR          CLOUDY    39  19  45 SE15      30.12F WCI  30
FREMONT        PTSUNNY   40  18  40 SE16G26   30.11F WCI  32
MILLARD        SUNNY     40  20  46 SE14G21   30.13F WCI  32
OFFUTT AFB     SUNNY     39  19  44 SE16      30.14F WCI  30
PLATTSMOUTH    SUNNY     38  17  42 S15       30.14F WCI  30
WAHOO          FAIR      40  17  38 S21G30    30.10F WCI  31
$$



USA.gov is the U.S. government's official web portal to all federal, state and local government web resources and services.